Theta_e
283 282 282 282 282 282 281 281 280 280 280 280 279 279 279 279 279 279 278 278 278 278 278 278 278 278 279 279 279 279 280 280 280 280 280 280 280 280 281 281 280 281
282 282 282 282 281 281 281 280 280 280 280 279 279 278 278 278 278 278 277 277 277 277 278 278 278 278 278 279 279 279 279 280 280 280 280 280 280 280 280 280 280 280
282 281 282 282 281 281 280 280 279 279 279 279 278 277 277 277 277 277 277 277 277 277 277 277 278 278 278 278 278 278 279 279 279 279 279 280 280 280 280 279 280 280
281 281 282 281 281 280 280 279 279 278 278 278 277 277 276 276 276 276 276 276 276 276 276 276 277 277 277 277 277 278 278 278 278 278 279 279 279 279 279 279 279 279
281 281 281 281 280 280 279 279 279 278 277 277 276 276 275 276 276 275 275 275 275 275 275 276 276 276 276 276 277 277 277 277 278 278 278 278 278 278 278 278 278 279
281 281 281 280 280 280 280 279 278 277 276 276 275 275 275 275 275 274 274 274 274 275 275 275 275 275 276 276 276 276 276 276 277 277 277 278 278 278 278 278 278 278
281 280 280 280 280 280 279 278 277 277 276 275 275 275 274 274 274 274 274 274 274 274 274 275 275 275 275 275 275 275 275 276 276 276 276 276 276 276 277 277 277 277
280 280 280 280 280 279 278 278 277 276 275 275 275 274 274 273 273 273 273 273 273 274 274 274 274 274 274 274 274 274 274 274 274 275 275 275 275 275 275 276 276 277
280 280 280 280 279 278 278 277 276 275 275 275 274 273 273 273 273 273 273 273 273 273 273 273 272 272 272 272 272 272 272 272 273 273 273 273 273 273 273 274 275 275
280 280 280 279 278 278 277 276 276 275 275 274 273 272 272 272 272 272 272 271 271 271 271 271 271 271 270 270 270 270 270 271 271 271 271 271 272 272 272 272 273 273
280 280 279 278 278 277 276 276 276 275 275 273 272 272 271 271 271 271 270 270 270 270 269 269 269 269 269 269 269 269 269 269 270 270 270 270 270 270 271 271 271 271
279 279 278 278 277 276 276 276 275 274 273 272 272 271 271 270 270 270 269 269 268 268 268 268 268 268 268 268 268 268 268 268 269 269 269 269 269 269 269 270 270 270
279 278 278 277 276 276 276 275 275 274 273 272 272 271 270 269 269 269 268 268 268 267 267 267 267 267 268 268 268 268 268 268 269 269 269 269 269 269 269 269 270 270
278 278 277 276 276 275 275 275 274 274 273 272 271 270 269 269 269 268 267 267 267 267 267 267 267 267 268 268 268 268 268 269 269 269 269 269 269 270 270 270 270 270
277 277 276 275 275 275 275 274 274 273 273 271 270 270 270 269 268 267 266 266 267 267 267 267 267 268 268 268 268 269 269 270 270 270 271 271 271 271 271 271 271 271
276 276 275 275 275 274 274 273 273 272 272 271 270 270 270 269 268 267 266 266 267 267 267 267 268 268 268 268 269 270 270 271 271 271 271 271 271 271 271 271 272 272
275 275 274 274 274 274 273 272 272 271 271 270 270 269 269 268 266 266 266 266 267 267 267 267 267 267 268 269 270 271 271 271 271 271 272 272 272 272 272 272 272 272
275 274 274 274 273 273 272 272 271 270 270 269 269 268 268 267 266 266 266 266 266 267 267 267 267 267 268 269 270 271 271 272 272 272 272 272 272 272 272 272 273 273
274 274 274 273 273 272 272 271 270 269 269 268 268 268 267 266 266 266 266 266 266 266 266 266 266 267 268 270 270 271 272 272 272 272 273 273 273 273 273 273 273 273
274 274 273 273 272 271 271 270 269 269 268 268 267 266 266 266 266 266 266 266 266 266 266 266 266 267 268 270 270 271 272 272 273 273 272 272 272 272 272 272 273 273
274 273 273 272 271 271 270 269 268 268 268 267 266 266 266 266 266 266 266 266 266 266 266 266 266 267 269 270 270 271 272 272 272 272 272 272 272 272 272 272 273 273
273 273 272 271 271 270 270 269 268 267 267 266 266 266 266 266 265 265 265 265 265 265 265 266 267 267 268 269 270 271 272 272 272 272 272 272 272 272 272 272 272 272
273 272 272 271 270 270 269 268 267 267 266 266 266 266 266 265 265 265 265 265 265 265 266 266 267 267 268 269 270 271 272 272 272 273 273 273 273 272 272 272 272 272
273 272 271 271 270 270 269 267 267 267 266 266 266 266 266 265 265 265 265 265 265 266 266 266 267 267 269 270 271 271 272 273 273 273 273 273 273 273 273 273 273 273
272 272 271 270 270 270 268 268 268 266 266 266 267 266 265 265 265 265 265 265 266 266 267 267 267 268 269 270 271 272 273 273 273 273 273 273 273 273 273 273 273 273
272 271 271 270 270 269 267 268 268 266 266 267 267 266 265 265 265 265 265 265 266 267 267 268 268 268 269 270 271 272 273 273 274 274 274 274 274 274 274 274 274 274
Wind_Speed
24 22 19 18 17 17 17 16 16 16 16 16 17 18 20 21 21 22 22 23 23 24 24 23 22 21 21 20 20 21 21 21 21 21 21 23 25 25 27 28 29 29
23 21 19 18 18 17 16 16 15 16 16 17 18 18 20 21 21 22 22 22 22 22 22 21 20 20 20 20 20 21 21 22 22 21 22 25 27 27 28 29 29 30
22 21 20 18 18 16 15 15 14 15 16 17 17 18 19 20 21 20 20 20 20 19 20 19 19 19 20 20 20 21 22 23 23 23 24 27 27 28 29 29 30 31
22 21 20 18 16 14 13 13 14 14 15 16 17 17 18 19 19 18 17 17 17 17 18 17 18 19 19 20 20 21 23 24 24 24 25 27 27 27 29 29 31 32
22 20 18 16 14 12 12 12 13 14 15 16 16 16 17 16 16 16 16 15 15 16 16 16 17 18 19 19 20 21 23 24 24 23 26 28 27 27 29 29 31 32
21 19 16 14 12 11 11 12 12 13 14 15 15 16 16 15 15 16 15 15 15 16 16 17 17 18 19 19 20 22 23 23 23 23 26 28 29 29 29 30 31 33
20 17 14 12 11 10 11 11 12 13 13 14 15 16 15 15 16 15 15 15 15 16 17 17 18 19 19 20 21 22 23 24 24 24 26 28 29 30 30 30 32 33
18 16 13 11 10 10 10 10 11 12 13 14 15 15 15 15 15 14 14 14 15 16 17 18 19 20 20 20 21 22 23 24 23 24 26 28 29 31 30 30 31 33
18 15 12 11 9 9 9 9 11 12 13 14 14 14 14 13 13 13 14 15 16 17 17 17 18 19 19 19 20 21 22 23 23 24 27 29 29 31 31 30 31 33
17 14 12 10 9 9 8 9 10 11 12 13 13 13 13 13 13 13 14 15 15 16 16 17 18 18 19 19 19 20 22 23 23 24 26 28 29 30 30 30 31 33
16 14 12 10 8 8 8 9 10 11 12 12 11 12 13 13 14 14 14 14 15 15 16 17 18 18 19 19 20 20 21 23 24 24 26 28 29 30 30 30 31 32
17 14 12 10 8 8 8 9 10 10 11 11 11 13 14 14 14 15 15 15 15 16 16 17 18 18 18 19 20 21 21 22 23 24 26 29 30 30 30 30 31 31
17 14 12 10 8 8 8 8 9 10 11 11 11 12 13 14 15 15 15 15 16 16 16 17 18 18 19 19 20 20 21 22 24 26 28 30 31 31 32 33 33 33
17 14 12 10 9 8 8 8 9 10 10 10 10 11 12 13 15 15 15 15 15 16 16 17 17 18 18 18 19 20 21 23 25 27 29 30 31 32 32 33 34 35
17 14 12 10 9 7 7 8 9 9 9 9 9 11 12 14 14 14 14 14 15 15 15 16 16 17 17 17 19 20 22 24 25 26 27 30 31 32 33 33 33 34
17 14 12 10 9 8 8 8 8 8 8 8 9 11 12 13 14 13 12 13 14 14 15 15 16 17 18 19 21 23 25 26 27 26 26 28 32 34 35 34 34 34
16 14 12 10 9 8 8 7 7 6 6 8 9 11 12 12 12 11 11 12 13 14 15 16 18 19 20 22 24 25 27 29 29 29 27 26 29 33 34 35 34 34
17 15 12 11 10 9 8 6 5 5 5 7 9 10 10 10 10 11 11 12 12 14 16 18 20 22 22 24 25 27 28 29 30 30 28 26 29 32 34 35 34 34
17 15 13 12 10 9 7 5 4 4 5 7 8 9 9 9 10 10 11 12 13 16 18 19 22 24 24 25 27 28 29 29 31 30 28 28 31 32 33 34 33 34
17 15 14 12 10 8 6 4 2 3 4 6 7 7 8 9 10 11 13 14 16 18 19 21 24 26 25 27 29 29 29 30 30 28 27 29 32 32 32 33 33 34
18 16 14 12 10 8 5 3 1 3 4 5 6 6 7 8 10 13 16 17 19 21 22 24 27 27 26 29 30 30 31 31 28 26 26 28 31 31 33 33 33 34
18 17 15 12 10 8 5 2 1 2 3 5 6 6 8 9 12 15 15 15 15 19 23 27 29 28 26 29 30 30 31 29 25 25 27 28 30 32 33 34 34 34
19 17 15 13 11 8 5 2 1 2 3 4 5 7 9 11 13 15 15 13 13 18 24 28 30 29 27 28 30 30 31 27 25 26 27 27 29 31 32 33 33 33
19 17 15 13 11 8 4 2 1 2 3 3 6 8 10 12 14 16 17 16 18 23 26 27 28 27 26 27 29 29 29 26 25 28 28 28 29 32 33 34 34 35
19 16 15 13 10 7 4 2 0 2 3 5 7 9 10 12 13 15 18 20 22 25 24 23 24 25 25 26 28 30 29 26 23 24 27 28 29 30 31 32 34 36
18 16 14 11 9 6 4 2 1 2 4 6 8 9 10 11 13 16 18 19 19 19 19 20 21 23 24 26 29 30 29 28 27 24 23 25 27 27 27 28 30 32
Wind_Direction
216 218 221 226 232 238 244 250 257 264 272 276 280 285 290 296 301 304 305 304 305 305 304 301 296 291 284 279 277 274 273 271 270 269 268 268 267 266 265 263 260 261
214 216 219 224 229 236 244 251 258 265 273 279 283 285 289 295 301 303 303 304 304 303 301 297 290 284 280 279 278 275 274 273 271 271 270 269 268 266 265 262 261 261
211 214 217 222 228 236 246 254 262 269 277 284 286 287 289 295 300 300 299 299 297 295 295 291 284 281 280 278 278 275 274 273 272 272 270 268 268 266 264 262 262 261
208 211 216 221 229 239 248 257 266 273 279 285 287 288 291 295 298 296 295 295 291 290 291 288 283 283 281 280 278 276 274 274 273 272 270 267 265 265 264 263 263 261
205 209 215 222 230 242 253 263 272 276 281 285 286 289 291 292 291 291 292 292 290 290 292 289 286 284 284 282 279 277 276 275 273 271 268 266 264 264 264 263 263 262
203 207 214 223 233 245 258 269 277 281 284 286 287 291 293 291 291 294 295 294 291 292 292 290 287 285 285 283 282 280 277 275 274 271 268 268 268 267 264 263 263 263
201 207 213 223 235 249 262 272 280 283 286 288 291 295 296 296 297 297 295 294 293 292 291 289 286 285 284 282 281 280 278 277 276 273 269 270 271 269 266 265 266 264
201 206 212 223 236 250 264 274 281 284 287 290 296 298 297 299 299 294 290 292 292 290 289 287 285 285 284 282 281 280 280 281 279 276 274 273 273 271 269 269 268 265
200 205 211 222 235 249 263 274 280 283 288 293 297 299 299 297 295 289 288 291 290 289 289 286 284 285 284 282 282 283 282 281 280 279 278 277 275 274 274 272 269 267
199 203 209 219 232 247 263 273 279 285 291 296 297 298 298 294 292 292 290 291 290 288 288 287 285 285 285 284 284 284 283 282 282 281 279 277 277 276 277 274 271 271
197 201 207 216 230 247 262 271 279 286 291 295 294 294 296 296 296 297 294 291 290 288 287 286 286 285 286 287 285 284 284 283 284 283 280 278 276 275 276 274 272 272
195 199 205 213 227 242 257 268 277 284 288 293 293 295 301 302 301 303 299 294 292 288 286 285 286 287 287 288 288 287 286 285 284 284 283 280 275 274 274 272 270 270
193 197 202 210 223 235 249 262 274 281 286 292 295 301 306 306 307 308 303 298 293 288 286 286 288 290 289 288 289 289 289 288 286 285 283 279 274 273 272 270 267 265
191 194 199 207 217 228 244 259 270 279 286 295 302 308 310 310 312 309 304 301 294 287 287 290 291 291 290 290 291 291 291 289 287 285 282 279 276 274 272 270 268 264
188 191 197 204 212 224 241 254 266 277 291 302 309 315 316 315 316 311 303 298 292 288 291 293 292 289 288 291 293 294 292 290 288 287 286 285 283 281 279 276 275 272
186 189 193 198 207 220 235 249 264 279 297 310 316 321 319 319 320 314 300 291 291 294 295 293 291 289 289 292 294 294 294 293 292 288 286 285 285 285 284 281 280 278
184 187 190 196 205 217 232 247 263 281 306 318 321 323 321 321 320 308 294 291 294 298 297 294 292 291 293 296 296 297 296 295 293 290 287 285 283 284 285 283 283 281
183 185 188 195 204 216 230 245 266 292 319 324 322 324 323 321 312 297 296 300 298 299 300 297 296 296 298 300 300 300 299 297 295 292 289 286 284 284 284 284 285 283
183 184 187 195 203 214 227 241 272 306 328 325 323 325 320 314 309 302 303 307 303 304 303 298 301 304 303 303 304 303 302 300 296 292 290 288 287 287 286 286 285 284
183 183 186 194 200 209 221 232 275 321 332 326 324 325 314 308 312 311 312 315 314 312 306 302 307 311 308 306 308 307 305 303 299 295 292 290 289 288 287 285 284 284
182 184 187 191 196 205 215 221 282 327 333 328 322 320 313 308 314 317 317 321 324 321 313 310 312 313 309 309 310 309 308 307 302 296 292 290 289 289 287 285 284 283
182 184 186 188 192 200 204 203 274 318 332 329 323 325 322 316 319 321 316 312 316 321 317 314 316 316 310 309 311 310 309 307 299 294 293 291 291 291 289 286 283 282
183 184 185 186 190 194 194 193 263 322 330 326 329 334 330 325 325 326 321 309 306 317 318 315 316 318 313 309 311 311 309 306 301 298 296 292 291 293 292 287 283 280
182 183 184 187 188 188 185 187 251 326 340 346 347 340 332 332 331 327 325 320 316 320 320 311 308 312 311 310 312 313 311 308 303 300 297 291 289 291 290 288 285 282
180 182 185 187 187 185 180 178 291 358 7 3 354 345 336 334 333 326 323 324 323 323 319 308 303 305 306 307 311 313 312 310 304 298 293 290 288 284 282 282 283 283
178 180 183 185 185 182 176 166 58 21 14 2 353 347 338 331 334 333 325 321 321 318 311 305 301 301 304 308 311 313 314 313 310 303 297 295 294 290 286 286 287 288